Location: Unspecified
(41.9031°N, 12.4386°E)
Time: 04:32:06
(UTC+02:00)

ISS - Pass Details

Date: 29 March 2020
Orbit: 417 x 423 km, 51.6° (Epoch: 29 March)

Event Time Altitude Azimuth Distance (km) Brightness Sun altitude
Rises 21:43:56 0° 308° (NW) 2,362 1.4 -23.9°
Reaches altitude 10° 21:46:14 10° 321° (NW) 1,497 0.0 -24.3°
Enters shadow 21:48:12 23° 352° (N) 941 -1.6 -24.6°
